Location: Asheville, NC
(35.6000°N, 82.5500°W)
Time: 14:01:17
(UTC-04:00)

Hubble Space Telescope - Pass Details

Date: 17 March 2018
Orbit: 537 x 541 km, 28.5° (Epoch: 18 June)

Event Time Altitude Azimuth Distance (km) Brightness Sun altitude
Rises 21:07:17 0° 259° (W) 2,677 5.6 -18.5°
Reaches altitude 10° 21:09:52 10° 245° (WSW) 1,784 4.2 -19.0°
Maximum altitude 21:13:10 23° 192° (SSW) 1,163 2.4 -19.7°
Enters shadow 21:13:57 22° 174° (S) 1,207 2.3 -19.9°
